Wind Star — C6CA9 — position and weather

sailwx.info

Track history (hours):
 
Tides and Currents Weather Stations Pressure Air Temp Water Temp Dewpoint Dewpoint Depression Visibility Wind Speed Wind Dir Waves Ship Positions

Wind Star

Operator: Holland America Line

Last reported at 2017-May-27 02:00 UTC. Time now 2017-May-27 02:14 UTC.
Position N 37°48' E 023°40'.

Length 134 m; draft 4.2 m.

Type: Passenger vessel. MMSI: 309163000.

Date/timePositionNaut miles runAvg speedWind from/ knotsBaromVisibWave heightAir tempDewpointWater temp
2017-May-27 02:00N 37°48' E 023°40'3 6.7
2017-May-27 01:30N 37°45' E 023°42'4 7.1
2017-May-27 00:59N 37°42' E 023°44'3 6.8
2017-May-27 00:29N 37°39' E 023°45'42 7.0
2017-May-26 18:32N 37°01' E 023°23'  
2017-May-22 18:15N 37°39' E 025°50'310.8
2017-May-22 17:57N 37°38' E 025°46'510.7
2017-May-22 17:30N 37°37' E 025°41'510.2
2017-May-22 17:00N 37°36' E 025°34'510.4
2017-May-22 16:30N 37°34' E 025°28'510.3
2017-May-22 16:00N 37°32' E 025°22'4 8.8
2017-May-22 15:30N 37°30' E 025°17'3 5.2
2017-May-22 15:00N 37°28' E 025°19'0 0.1
2017-May-22 13:58N 37°27' E 025°19'0 0.0
2017-May-22 13:28N 37°27' E 025°19'0 0.1
2017-May-22 12:58N 37°27' E 025°19'0 0.1
2017-May-22 12:28N 37°27' E 025°19'0 0.1
2017-May-22 11:58N 37°27' E 025°19'0 0.1
2017-May-22 11:28N 37°27' E 025°19'0 0.0
2017-May-22 10:58N 37°27' E 025°19'0 0.0
2017-May-22 10:28N 37°27' E 025°19'0 0.1
2017-May-22 09:58N 37°27' E 025°19'0 0.1
2017-May-22 09:28N 37°27' E 025°19'0 0.1
2017-May-22 08:55N 37°27' E 025°19'0 0.0
2017-May-22 08:22N 37°27' E 025°19'0 0.1
2017-May-22 07:58N 37°27' E 025°19'0 0.0
2017-May-22 07:28N 37°27' E 025°19'0 0.0
2017-May-22 06:58N 37°27' E 025°19'0 0.0
2017-May-22 06:28N 37°27' E 025°19'0 0.1
2017-May-22 05:58N 37°27' E 025°19'0 0.0
2017-May-22 05:25N 37°27' E 025°19'0 0.0
2017-May-22 05:00N 37°27' E 025°19'2 3.6
2017-May-22 04:31N 37°27' E 025°17'4 8.9
2017-May-22 04:01N 37°27' E 025°11'4 8.9
2017-May-22 03:30N 37°25' E 025°06'5 9.1
2017-May-22 03:00N 37°23' E 025°01'4 8.9
2017-May-22 02:30N 37°21' E 024°56'4 8.7
2017-May-22 02:00N 37°19' E 024°51'4 7.8
2017-May-22 01:30N 37°18' E 024°47'64 9.9
2017-May-21 19:02N 37°09' E 023°27'110.1
2017-May-21 18:54N 37°09' E 023°25'39 9.0
2017-May-21 14:37N 37°34' E 022°47'7 0.6
2017-May-21 03:12N 37°27' E 022°51'12 6.1
2017-May-21 01:13N 37°17' E 022°58'15 6.3
2017-May-20 22:50N 37°09' E 023°14'3 7.2
2017-May-20 22:27N 37°09' E 023°17'4 7.2
2017-May-20 21:55N 37°09' E 023°22'4 7.2
2017-May-20 21:25N 37°10' E 023°27'3 7.5
2017-May-20 21:00N 37°10' E 023°31'4 7.5
2017-May-20 20:30N 37°12' E 023°34'4 7.3
2017-May-20 20:00N 37°15' E 023°37'4 7.7
2017-May-20 19:30N 37°18' E 023°40'4 7.5
2017-May-20 19:00N 37°22' E 023°42'4 7.7
2017-May-20 18:31N 37°26' E 023°42'4 7.7
2017-May-20 18:00N 37°29' E 023°42'5 7.6
2017-May-20 17:22N 37°34' E 023°42'3 7.4
2017-May-20 16:56N 37°37' E 023°42'3 7.2
2017-May-20 16:30N 37°41' E 023°42'3 7.1
2017-May-20 16:00N 37°44' E 023°40'4 8.0
2017-May-20 15:30N 37°48' E 023°38'4 8.0
2017-May-20 15:00N 37°51' E 023°36'4 9.0
2017-May-20 14:30N 37°56' E 023°37'1 1.2
2017-May-20 13:29N 37°56' E 023°38'0 0.0
2017-May-20 12:59N 37°56' E 023°38'0 0.0
2017-May-20 12:29N 37°56' E 023°38'0 0.0
2017-May-20 11:59N 37°56' E 023°38'0 0.0
2017-May-20 11:29N 37°56' E 023°38'0 0.0
2017-May-20 10:59N 37°56' E 023°38'0 0.0
2017-May-20 10:29N 37°56' E 023°38'0 0.0
2017-May-20 09:59N 37°56' E 023°38'0 0.0
2017-May-20 09:29N 37°56' E 023°38'0 0.0
2017-May-20 08:59N 37°56' E 023°38'0 0.0
2017-May-20 08:29N 37°56' E 023°38'0 0.0
2017-May-20 07:59N 37°56' E 023°38'0 0.0
2017-May-20 07:29N 37°56' E 023°38'0 0.0
2017-May-20 06:59N 37°56' E 023°38'0 0.0
2017-May-20 06:29N 37°56' E 023°38'0 0.0
2017-May-20 05:59N 37°56' E 023°38'0 0.0
2017-May-20 05:29N 37°56' E 023°38'0 0.0
2017-May-20 04:59N 37°56' E 023°38'0 0.0
2017-May-20 04:29N 37°56' E 023°38'0 0.0
2017-May-20 04:01N 37°56' E 023°38'2 3.0
2017-May-20 03:31N 37°55' E 023°37'2 3.8
2017-May-20 03:00N 37°54' E 023°37'3 5.1
2017-May-20 02:31N 37°51' E 023°38'3 6.4
2017-May-20 02:01N 37°48' E 023°40'3 6.5
2017-May-20 01:30N 37°46' E 023°42'3 6.8
2017-May-20 01:00N 37°43' E 023°44'3 6.8
2017-May-20 00:30N 37°39' E 023°46'32 6.8
2017-May-19 19:43N 37°10' E 023°30'2 7.4
2017-May-19 19:30N 37°08' E 023°29'8 7.3
2017-May-19 18:21N 37°01' E 023°23'  
Track history (hours):
 
Tides and Currents Weather Stations Pressure Air Temp Water Temp Dewpoint Dewpoint Depression Visibility Wind Speed Wind Dir Waves Ship Positions

Wind Star

Operator: Holland America Line

Last reported at 2017-May-27 02:00 UTC. Time now 2017-May-27 02:14 UTC.
Position N 37°48' E 023°40'.

Length 134 m; draft 4.2 m.

Type: Passenger vessel. MMSI: 309163000.

Date/timePositionNaut miles runAvg speedWind from/ knotsBaromVisibWave heightAir tempDewpointWater temp
2017-May-27 02:00N 37°48' E 023°40'3 6.7
2017-May-27 01:30N 37°45' E 023°42'4 7.1
2017-May-27 00:59N 37°42' E 023°44'3 6.8
2017-May-27 00:29N 37°39' E 023°45'42 7.0
2017-May-26 18:32N 37°01' E 023°23'  
2017-May-22 18:15N 37°39' E 025°50'310.8
2017-May-22 17:57N 37°38' E 025°46'510.7
2017-May-22 17:30N 37°37' E 025°41'510.2
2017-May-22 17:00N 37°36' E 025°34'510.4
2017-May-22 16:30N 37°34' E 025°28'510.3
2017-May-22 16:00N 37°32' E 025°22'4 8.8
2017-May-22 15:30N 37°30' E 025°17'3 5.2
2017-May-22 15:00N 37°28' E 025°19'0 0.1
2017-May-22 13:58N 37°27' E 025°19'0 0.0
2017-May-22 13:28N 37°27' E 025°19'0 0.1
2017-May-22 12:58N 37°27' E 025°19'0 0.1
2017-May-22 12:28N 37°27' E 025°19'0 0.1
2017-May-22 11:58N 37°27' E 025°19'0 0.1
2017-May-22 11:28N 37°27' E 025°19'0 0.0
2017-May-22 10:58N 37°27' E 025°19'0 0.0
2017-May-22 10:28N 37°27' E 025°19'0 0.1
2017-May-22 09:58N 37°27' E 025°19'0 0.1
2017-May-22 09:28N 37°27' E 025°19'0 0.1
2017-May-22 08:55N 37°27' E 025°19'0 0.0
2017-May-22 08:22N 37°27' E 025°19'0 0.1
2017-May-22 07:58N 37°27' E 025°19'0 0.0
2017-May-22 07:28N 37°27' E 025°19'0 0.0
2017-May-22 06:58N 37°27' E 025°19'0 0.0
2017-May-22 06:28N 37°27' E 025°19'0 0.1
2017-May-22 05:58N 37°27' E 025°19'0 0.0
2017-May-22 05:25N 37°27' E 025°19'0 0.0
2017-May-22 05:00N 37°27' E 025°19'2 3.6
2017-May-22 04:31N 37°27' E 025°17'4 8.9
2017-May-22 04:01N 37°27' E 025°11'4 8.9
2017-May-22 03:30N 37°25' E 025°06'5 9.1
2017-May-22 03:00N 37°23' E 025°01'4 8.9
2017-May-22 02:30N 37°21' E 024°56'4 8.7
2017-May-22 02:00N 37°19' E 024°51'4 7.8
2017-May-22 01:30N 37°18' E 024°47'64 9.9
2017-May-21 19:02N 37°09' E 023°27'110.1
2017-May-21 18:54N 37°09' E 023°25'39 9.0
2017-May-21 14:37N 37°34' E 022°47'7 0.6
2017-May-21 03:12N 37°27' E 022°51'12 6.1
2017-May-21 01:13N 37°17' E 022°58'15 6.3
2017-May-20 22:50N 37°09' E 023°14'3 7.2
2017-May-20 22:27N 37°09' E 023°17'4 7.2
2017-May-20 21:55N 37°09' E 023°22'4 7.2
2017-May-20 21:25N 37°10' E 023°27'3 7.5
2017-May-20 21:00N 37°10' E 023°31'4 7.5
2017-May-20 20:30N 37°12' E 023°34'4 7.3
2017-May-20 20:00N 37°15' E 023°37'4 7.7
2017-May-20 19:30N 37°18' E 023°40'4 7.5
2017-May-20 19:00N 37°22' E 023°42'4 7.7
2017-May-20 18:31N 37°26' E 023°42'4 7.7
2017-May-20 18:00N 37°29' E 023°42'5 7.6
2017-May-20 17:22N 37°34' E 023°42'3 7.4
2017-May-20 16:56N 37°37' E 023°42'3 7.2
2017-May-20 16:30N 37°41' E 023°42'3 7.1
2017-May-20 16:00N 37°44' E 023°40'4 8.0
2017-May-20 15:30N 37°48' E 023°38'4 8.0
2017-May-20 15:00N 37°51' E 023°36'4 9.0
2017-May-20 14:30N 37°56' E 023°37'1 1.2
2017-May-20 13:29N 37°56' E 023°38'0 0.0
2017-May-20 12:59N 37°56' E 023°38'0 0.0
2017-May-20 12:29N 37°56' E 023°38'0 0.0
2017-May-20 11:59N 37°56' E 023°38'0 0.0
2017-May-20 11:29N 37°56' E 023°38'0 0.0
2017-May-20 10:59N 37°56' E 023°38'0 0.0
2017-May-20 10:29N 37°56' E 023°38'0 0.0
2017-May-20 09:59N 37°56' E 023°38'0 0.0
2017-May-20 09:29N 37°56' E 023°38'0 0.0
2017-May-20 08:59N 37°56' E 023°38'0 0.0
2017-May-20 08:29N 37°56' E 023°38'0 0.0
2017-May-20 07:59N 37°56' E 023°38'0 0.0
2017-May-20 07:29N 37°56' E 023°38'0 0.0
2017-May-20 06:59N 37°56' E 023°38'0 0.0
2017-May-20 06:29N 37°56' E 023°38'0 0.0
2017-May-20 05:59N 37°56' E 023°38'0 0.0
2017-May-20 05:29N 37°56' E 023°38'0 0.0
2017-May-20 04:59N 37°56' E 023°38'0 0.0
2017-May-20 04:29N 37°56' E 023°38'0 0.0
2017-May-20 04:01N 37°56' E 023°38'2 3.0
2017-May-20 03:31N 37°55' E 023°37'2 3.8
2017-May-20 03:00N 37°54' E 023°37'3 5.1
2017-May-20 02:31N 37°51' E 023°38'3 6.4
2017-May-20 02:01N 37°48' E 023°40'3 6.5
2017-May-20 01:30N 37°46' E 023°42'3 6.8
2017-May-20 01:00N 37°43' E 023°44'3 6.8
2017-May-20 00:30N 37°39' E 023°46'32 6.8
2017-May-19 19:43N 37°10' E 023°30'2 7.4
2017-May-19 19:30N 37°08' E 023°29'8 7.3
2017-May-19 18:21N 37°01' E 023°23'  

Dump ship's entire track history